Buffalo, MN

10:06 PM CDT on May 24, 2018 (GMT -0500)
Buffalo

Weather History for KCFE - May, 2014

Change the Weather History Date:

Sunday, May 4, 2014

  Actual Average (KMIC) Record (KMIC)
Temperature  
Mean Temperature 45 °F -  
Max Temperature 56 °F 63 °F 88 °F (2000)
Min Temperature 34 °F 42 °F 28 °F (2005)
Degree Days  
Heating Degree Days 20    
Moisture  
Dew Point 27 °F    
Average Humidity 50    
Maximum Humidity 79    
Minimum Humidity 28    
Precipitation  
Precipitation 0.00 in - - ()
Sea Level Pressure  
Sea Level Pressure 30.06 in    
Wind  
Wind Speed 6 mph (NNE)    
Max Wind Speed 12 mph    
Max Gust Speed 17 mph    
Visibility 10 miles    
Events      
Averages and records for this station are not official NWS values.
T = Trace of Precipitation, MM = Missing Value Source: NWS Daily Summary

Daily Weather History Graph

Daily Weather History Graph

Search for Another Location

Airport or City:

Astronomy

May. 04, 2014 Rise Set
Actual Time 5:59 AM CDT 8:25 PM CDT
Civil Twilight 5:27 AM CDT 8:58 PM CDT
Nautical Twilight 4:46 AM CDT 9:39 PM CDT
Astronomical Twilight 3:59 AM CDT 10:26 PM CDT
Moon 10:23 AM CDT (5/4) 12:32 AM CDT (5/4)
Length of Visible Light 15h 31m
Length of Day
14h 25m
Waxing Crescent, 28% of the Moon is Illuminated
May 4
Waxing Crescent
May 6
First Quarter
May 14
Full
May 21
Last Quarter
May 28
New

Hourly Weather History & Observations

Time (CDT) Temp. Windchill Dew Point Humidity Pressure Visibility Wind Dir Wind Speed Gust Speed Precip Events Conditions
12:16 AM 43.3 °F 37.7 °F 30.6 °F 61% 30.00 in 10.0 mi WNW 10.4 mph 17.3 mph N/A   Clear
12:35 AM 42.4 °F 38.1 °F 30.0 °F 61% 30.00 in 10.0 mi NW 6.9 mph - N/A   Clear
12:55 AM 41.9 °F 35.9 °F 29.7 °F 62% 30.01 in 10.0 mi WNW 10.4 mph - N/A   Clear
1:16 AM 41.2 °F 36.0 °F 29.8 °F 64% 30.02 in 10.0 mi WNW 8.1 mph - N/A   Clear
1:35 AM 40.8 °F 34.1 °F 29.1 °F 63% 30.04 in 10.0 mi NW 11.5 mph 16.1 mph N/A   Clear
1:55 AM 40.1 °F 33.2 °F 28.0 °F 62% 30.04 in 10.0 mi NW 11.5 mph - N/A   Clear
2:16 AM 39.4 °F 33.2 °F 27.5 °F 62% 30.05 in 10.0 mi NNW 9.2 mph - N/A   Clear
2:35 AM 39.2 °F 34.2 °F 27.5 °F 63% 30.05 in 10.0 mi NW 6.9 mph - N/A   Clear
2:55 AM 38.3 °F 33.9 °F 27.5 °F 65% 30.05 in 10.0 mi NW 5.8 mph - N/A   Clear
3:16 AM 37.4 °F 32.8 °F 27.5 °F 67% 30.06 in 10.0 mi NNW 5.8 mph - N/A   Clear
3:35 AM 37.2 °F 33.6 °F 27.9 °F 69% 30.06 in 10.0 mi NW 4.6 mph - N/A   Clear
3:55 AM 36.5 °F 33.9 °F 27.5 °F 70% 30.07 in 10.0 mi NW 3.5 mph - N/A   Clear
4:16 AM 36.5 °F 31.8 °F 27.5 °F 70% 30.07 in 10.0 mi NW 5.8 mph - N/A   Clear
4:35 AM 36.0 °F 32.1 °F 27.5 °F 71% 30.08 in 10.0 mi NW 4.6 mph - N/A   Clear
4:55 AM 35.8 °F 30.9 °F 27.5 °F 72% 30.07 in 10.0 mi NNW 5.8 mph - N/A   Clear
5:15 AM 35.8 °F 31.9 °F 27.7 °F 72% 30.07 in 10.0 mi NNW 4.6 mph - N/A   Clear
5:35 AM 35.6 °F 31.7 °F 27.9 °F 73% 30.07 in 10.0 mi NNW 4.6 mph - N/A   Clear
5:56 AM 34.9 °F 32.0 °F 28.0 °F 76% 30.08 in 10.0 mi NNW 3.5 mph - N/A   Clear
6:15 AM 34.7 °F - 28.2 °F 77% 30.09 in 10.0 mi Calm Calm - N/A   Clear
6:35 AM 34.0 °F - 28.2 °F 79% 30.10 in 10.0 mi Calm Calm - N/A   Clear
6:56 AM 35.1 °F - 28.4 °F 77% 30.11 in 10.0 mi Calm Calm - N/A   Clear
7:15 AM 36.5 °F 31.8 °F 28.4 °F 72% 30.12 in 10.0 mi North 5.8 mph - N/A   Clear
7:35 AM 37.4 °F 32.8 °F 28.2 °F 69% 30.13 in 10.0 mi NNW 5.8 mph - N/A   Clear
7:56 AM 37.8 °F 33.3 °F 28.0 °F 68% 30.13 in 10.0 mi North 5.8 mph - N/A   Clear
8:15 AM 38.3 °F 33.2 °F 28.0 °F 67% 30.14 in 10.0 mi NNW 6.9 mph - N/A   Clear
8:35 AM 38.3 °F 33.9 °F 27.9 °F 66% 30.14 in 10.0 mi North 5.8 mph - N/A   Clear
8:56 AM 40.1 °F 36.1 °F 27.7 °F 61% 30.14 in 10.0 mi NNW 5.8 mph - N/A   Clear
9:15 AM 41.0 °F - 28.0 °F 60% 30.14 in 10.0 mi Calm Calm - N/A   Clear
9:35 AM 42.4 °F 38.8 °F 28.6 °F 58% 30.13 in 10.0 mi NNE 5.8 mph - N/A   Clear
9:56 AM 43.0 °F - 27.0 °F 53% 30.13 in 10.0 mi Calm Calm - N/A   Clear
10:15 AM 44.6 °F 40.7 °F 27.1 °F 50% 30.13 in 10.0 mi NNE 6.9 mph - N/A   Clear
10:35 AM 45.1 °F 39.9 °F 26.2 °F 48% 30.12 in 10.0 mi NNE 10.4 mph - N/A   Clear
10:56 AM 45.7 °F 40.6 °F 26.2 °F 47% 30.12 in 10.0 mi NE 10.4 mph - N/A   Clear
11:15 AM 46.4 °F 43.5 °F 25.9 °F 45% 30.12 in 10.0 mi NNE 5.8 mph - N/A   Clear
11:35 AM 47.8 °F - 25.9 °F 42% 30.11 in 10.0 mi NE 11.5 mph - N/A   Clear
11:56 AM 48.9 °F - 26.1 °F 41% 30.11 in 10.0 mi ENE 8.1 mph - N/A   Clear
12:15 PM 49.1 °F - 25.7 °F 40% 30.10 in 10.0 mi NE 3.5 mph 10.4 mph N/A   Clear
12:35 PM 49.8 °F - 25.0 °F 38% 30.09 in 10.0 mi NE 4.6 mph - N/A   Clear
12:56 PM 51.1 °F - 24.6 °F 36% 30.08 in 10.0 mi Calm Calm - N/A   Clear
1:15 PM 50.7 °F - 23.2 °F 34% 30.08 in 10.0 mi North 4.6 mph - N/A   Clear
1:35 PM 51.8 °F - 22.5 °F 32% 30.07 in 10.0 mi NE 4.6 mph - N/A   Clear
1:56 PM 52.5 °F - 22.6 °F 31% 30.07 in 10.0 mi North 10.4 mph - N/A   Clear
2:15 PM 53.6 °F - 24.4 °F 32% 30.06 in 10.0 mi NNE 9.2 mph - N/A   Clear
2:35 PM 53.2 °F - 23.2 °F 31% 30.06 in 10.0 mi North 3.5 mph - N/A   Clear
2:56 PM 54.0 °F - 24.3 °F 32% 30.06 in 10.0 mi Calm Calm - N/A   Clear
3:15 PM 54.7 °F - 25.2 °F 32% 30.05 in 10.0 mi ENE 4.6 mph - N/A   Clear
3:35 PM 54.9 °F - 25.2 °F 32% 30.04 in 10.0 mi ENE 3.5 mph - N/A   Clear
3:56 PM 54.9 °F - 23.7 °F 30% 30.04 in 10.0 mi Calm Calm - N/A   Clear
4:15 PM 55.4 °F - 22.5 °F 28% 30.03 in 10.0 mi ENE 8.1 mph - N/A   Clear
4:35 PM 55.4 °F - 23.4 °F 29% 30.02 in 10.0 mi ENE 3.5 mph - N/A   Clear
4:56 PM 55.9 °F - 24.1 °F 29% 30.01 in 10.0 mi NE 4.6 mph - N/A   Clear
5:15 PM 56.3 °F - 24.3 °F 29% 30.01 in 10.0 mi ENE 6.9 mph - N/A   Clear
5:35 PM 55.4 °F - 23.9 °F 30% 30.01 in 10.0 mi East 6.9 mph - N/A   Clear
5:56 PM 55.0 °F - 24.8 °F 31% 30.00 in 10.0 mi East 6.9 mph - N/A   Clear
6:15 PM 54.9 °F - 24.1 °F 30% 30.00 in 10.0 mi ENE 4.6 mph - N/A   Clear
6:35 PM 55.4 °F - 25.2 °F 31% 30.00 in 10.0 mi East 6.9 mph - N/A   Clear
6:56 PM 54.9 °F - 26.1 °F 33% 29.99 in 10.0 mi East 5.8 mph - N/A   Clear
7:15 PM 54.7 °F - 25.3 °F 32% 30.00 in 10.0 mi East 3.5 mph - N/A   Clear
7:35 PM 54.5 °F - 27.9 °F 36% 29.99 in 10.0 mi East 4.6 mph - N/A   Clear
7:56 PM 53.6 °F - 27.7 °F 37% 29.99 in 10.0 mi East 3.5 mph - N/A   Clear
8:15 PM 53.2 °F - 30.6 °F 42% 29.99 in 10.0 mi Calm Calm - N/A   Clear
8:35 PM 52.0 °F - 29.1 °F 41% 30.01 in 10.0 mi Calm Calm - N/A   Clear
8:56 PM 51.6 °F - 31.6 °F 46% 29.99 in 10.0 mi ENE 3.5 mph - N/A   Scattered Clouds
9:15 PM 51.4 °F - 32.5 °F 49% 30.00 in 10.0 mi Calm Calm - N/A   Mostly Cloudy
9:35 PM 51.4 °F - 32.0 °F 47% 29.99 in 10.0 mi ENE 4.6 mph - N/A   Overcast
9:56 PM 51.4 °F - 28.9 °F 42% 30.01 in 10.0 mi Calm Calm - N/A   Overcast
10:15 PM 51.4 °F - 29.1 °F 42% 30.01 in 10.0 mi North 3.5 mph - N/A   Overcast
10:35 PM 51.4 °F - 30.6 °F 45% 30.01 in 10.0 mi NNE 3.5 mph - N/A   Overcast
10:56 PM 50.9 °F - 30.4 °F 45% 30.01 in 10.0 mi NNE 3.5 mph - N/A   Overcast
11:15 PM 50.5 °F - 30.9 °F 47% 30.01 in 10.0 mi North 4.6 mph - N/A   Overcast
11:35 PM 50.5 °F - 31.8 °F 49% 30.01 in 10.0 mi North 3.5 mph - N/A   Overcast
11:56 PM 50.0 °F - 32.7 °F 52% 29.99 in 10.0 mi NE 4.6 mph - N/A   Overcast